Frankfort, KY

9:11 PM EST on February 09, 2016 (GMT -0500)
Capital City

Weather History for KFFT - September, 2013

Change the Weather History Date:

Wednesday, September 18, 2013

  Actual Average Record
Temperature  
Mean Temperature 66 °F 67 °F  
Max Temperature 76 °F 79 °F 96 °F (1954)
Min Temperature 56 °F 55 °F 38 °F (1937)
Degree Days  
Heating Degree Days 0 2  
Month to date heating degree days 11 11  
Since 1 July heating degree days 15 12  
Cooling Degree Days 1 4  
Month to date cooling degree days 121 103  
Year to date cooling degree days 1057 1105  
Growing Degree Days 15 (Base 50)    
Moisture  
Dew Point 63 °F    
Average Humidity 83    
Maximum Humidity 93    
Minimum Humidity 73    
Precipitation  
Precipitation 0.02 in 0.09 in 1.30 in (1992)
Month to date precipitation 0.14 2.06  
Year to date precipitation 35.20 33.37  
Sea Level Pressure  
Sea Level Pressure 30.12 in    
Wind  
Wind Speed 4 mph (SSW)    
Max Wind Speed 13 mph    
Max Gust Speed 17 mph    
Visibility 8 miles    
Events Rain    
T = Trace of Precipitation, MM = Missing Value Source: NWS Daily Summary

Daily Weather History Graph

Daily Weather History Graph

Search for Another Location

Airport or City:

Trip Planner

Search our weather history database for the weather conditions in past years. The results will help you decide how hot, cold, wet, or windy it might be!

Date:

Astronomy

Sep. 18, 2013 Rise Set
Actual Time 7:24 AM EDT 7:42 PM EDT
Civil Twilight 6:57 AM EDT 8:08 PM EDT
Nautical Twilight 6:26 AM EDT 8:39 PM EDT
Astronomical Twilight 5:55 AM EDT 9:11 PM EDT
Moon 7:05 PM EDT (9/18) 6:25 AM EDT (9/18)
Length of Visible Light 13h 11m
Length of Day
12h 18m
Waxing Gibbous, 99% of the Moon is Illuminated
Sep 18
Waxing Gibbous
Sep 19
Full
Sep 26
Last Quarter
Oct 4
New
Oct 11
First Quarter

Hourly Weather History & Observations

Time (EDT) Temp. Dew Point Humidity Pressure Visibility Wind Dir Wind Speed Gust Speed Precip Events Conditions
12:53 AM 57.9 °F 54.0 °F 87% 30.14 in 10.0 mi Calm Calm - N/A   Partly Cloudy
1:53 AM 59.0 °F 55.0 °F 87% 30.13 in 10.0 mi Calm Calm - N/A   Mostly Cloudy
2:53 AM 59.0 °F 55.9 °F 90% 30.12 in 10.0 mi Calm Calm - N/A   Scattered Clouds
3:53 AM 59.0 °F 57.0 °F 93% 30.11 in 10.0 mi ENE 3.5 mph - N/A   Mostly Cloudy
4:53 AM 60.1 °F 57.0 °F 90% 30.11 in 10.0 mi Calm Calm - N/A   Mostly Cloudy
5:53 AM 60.1 °F 57.0 °F 90% 30.11 in 10.0 mi Calm Calm - N/A   Overcast
6:53 AM 61.0 °F 57.9 °F 90% 30.13 in 10.0 mi Calm Calm - N/A   Overcast
7:53 AM 62.1 °F 59.0 °F 90% 30.14 in 9.0 mi Calm Calm - N/A   Overcast
8:53 AM 64.0 °F 61.0 °F 90% 30.15 in 8.0 mi Calm Calm - N/A   Overcast
9:01 AM 64.4 °F 62.6 °F 94% 30.16 in 8.0 mi Calm Calm - N/A   Overcast
9:53 AM 66.0 °F 64.0 °F 93% 30.16 in 7.0 mi Calm Calm - 0.01 in   Overcast
10:53 AM 69.1 °F 64.9 °F 87% 30.17 in 8.0 mi SW 5.8 mph - N/A   Overcast
11:53 AM 71.1 °F 64.9 °F 81% 30.16 in 9.0 mi WSW 6.9 mph - N/A   Overcast
12:53 PM 72.0 °F 64.0 °F 76% 30.15 in 8.0 mi WSW 6.9 mph - N/A   Overcast
1:53 PM 72.0 °F 64.0 °F 76% 30.13 in 8.0 mi SW 9.2 mph - N/A   Overcast
2:53 PM 72.0 °F 64.9 °F 78% 30.11 in 6.0 mi SSW 3.5 mph - 0.00 in Rain Light Rain
3:53 PM 72.0 °F 66.0 °F 81% 30.10 in 7.0 mi SW 6.9 mph - 0.01 in   Mostly Cloudy
4:03 PM 73.4 °F 66.2 °F 78% 30.11 in 7.0 mi SSW 4.6 mph - N/A   Mostly Cloudy
4:11 PM 73.4 °F 66.2 °F 78% 30.11 in 7.0 mi SSW 6.9 mph - N/A   Mostly Cloudy
4:19 PM 73.4 °F 66.2 °F 78% 30.11 in 7.0 mi SSW 5.8 mph - N/A   Partly Cloudy
4:53 PM 73.9 °F 66.0 °F 76% 30.09 in 7.0 mi SSW 4.6 mph - N/A   Mostly Cloudy
5:53 PM 73.9 °F 64.9 °F 73% 30.09 in 7.0 mi SSW 6.9 mph - N/A   Overcast
6:53 PM 72.0 °F 66.0 °F 81% 30.09 in 7.0 mi South 6.9 mph - N/A   Mostly Cloudy
7:53 PM 71.1 °F 66.0 °F 84% 30.09 in 7.0 mi South 3.5 mph - N/A   Mostly Cloudy
8:53 PM 70.0 °F 66.0 °F 87% 30.09 in 8.0 mi SE 4.6 mph - N/A   Overcast
9:53 PM 69.1 °F 66.0 °F 90% 30.10 in 8.0 mi SSE 4.6 mph - N/A   Overcast
10:53 PM 68.0 °F 66.0 °F 93% 30.10 in 8.0 mi South 3.5 mph - N/A   Mostly Cloudy
11:53 PM 69.1 °F 64.9 °F 87% 30.09 in 10.0 mi South 4.6 mph - N/A   Overcast